ASH6252 KIAH-KSAT

Flight info

Callsign ASH6252
Flight time N/A
Altitude 26000
Route PITZZ5 WAILN QERVO3
Aircraft E75L/M-SDE3GILORVW/S

Departure

Time 2026-05-07 21:06
Airport George Bush Intercontinental Airport (KIAH)

Arrival

Time N/A
Airport San Antonio International Airport (KSAT)
Time Latitude Longitude Altitude Speed Heading
2026-05-07 20:50 29.98777 -95.34886 105 ft 0 kts 280°
2026-05-07 20:57 29.98776 -95.34870 105 ft 3 kts 253°
2026-05-07 20:57 29.98787 -95.34853 103 ft 1 kts 220°
2026-05-07 20:57 29.98800 -95.34838 103 ft 3 kts 239°
2026-05-07 20:57 29.98803 -95.34819 104 ft 3 kts 298°
2026-05-07 20:58 29.98789 -95.34810 104 ft 3 kts
2026-05-07 20:58 29.98774 -95.34810 103 ft 0 kts
2026-05-07 21:00 29.98775 -95.34810 105 ft 1 kts
2026-05-07 21:01 29.98811 -95.34810 105 ft 8 kts
2026-05-07 21:01 29.98874 -95.34810 105 ft 10 kts
2026-05-07 21:01 29.98949 -95.34809 105 ft 12 kts
2026-05-07 21:01 29.99041 -95.34810 111 ft 14 kts 349°
2026-05-07 21:02 29.99087 -95.34892 105 ft 13 kts 272°
2026-05-07 21:02 29.99091 -95.35018 105 ft 17 kts 272°
2026-05-07 21:02 29.99091 -95.35156 105 ft 18 kts 270°
2026-05-07 21:02 29.99091 -95.35307 105 ft 19 kts 269°
2026-05-07 21:03 29.99081 -95.35464 105 ft 18 kts 236°
2026-05-07 21:03 29.98963 -95.35485 105 ft 18 kts 180°
2026-05-07 21:03 29.98877 -95.35571 105 ft 14 kts 241°
2026-05-07 21:03 29.98845 -95.35640 105 ft 9 kts 242°
2026-05-07 21:04 29.98812 -95.35710 104 ft 11 kts 242°
2026-05-07 21:04 29.98767 -95.35765 107 ft 9 kts 173°
2026-05-07 21:04 29.98706 -95.35735 105 ft 1 kts 152°
2026-05-07 21:04 29.98704 -95.35734 105 ft 2 kts 152°
2026-05-07 21:05 29.98701 -95.35732 105 ft 2 kts 151°
2026-05-07 21:05 29.98527 -95.35621 106 ft 69 kts 151°
2026-05-07 21:05 29.97857 -95.35216 107 ft 147 kts 152°
2026-05-07 21:05 29.96827 -95.34592 631 ft 169 kts 148°
2026-05-07 21:06 29.95799 -95.33910 1564 ft 177 kts 136°
2026-05-07 21:06 29.94935 -95.32853 2303 ft 188 kts 124°
2026-05-07 21:06 29.94131 -95.31621 2937 ft 198 kts 123°
2026-05-07 21:06 29.93267 -95.30305 3560 ft 214 kts 126°
2026-05-07 21:07 29.92295 -95.28880 4075 ft 241 kts 128°
2026-05-07 21:07 29.91189 -95.27280 4168 ft 264 kts 128°
2026-05-07 21:07 29.90049 -95.25628 4173 ft 259 kts 128°